格洛纳斯M-725 COSMOS 2443 [GLONASS-M]

导读 | 豆包AI

COSMOS 2443(又名GLONASS)是由独联体(CIS)发射的格洛纳斯导航卫星,于2008年9月25日08:00发射入轨,属于俄罗斯全球卫星导航系统(GLONASS)的组网卫星之一。该卫星运行于约19100公里高度的中圆地球轨道,轨道倾角64.8°,运行周期约11小时15分,采用频分多址技术播发导航信号,为全球用户提供高精度定位、导航与授时服务,助力格洛纳斯系统完成全球组网部署。

基本信息
目录编号:
33379
目录名称:
COSMOS 2443 (GLONASS)
国际标识:
2008-046B
轨道中心:
EARTH
卫星名称:
格洛纳斯M-725
卫星全名:
格洛纳斯M-725 COSMOS 2443 [GLONASS-M]
卫星状态:
在轨 (已飞行6426 天)
发射日期:
2008-09-25 UTC
国别 :
俄罗斯(独联体) (CIS)
星等 :
--
轨道信息
数据来源 国际轨道数据 AOE轨道数据
星历时间 2026-04-27T18:46:57+0800
2天前
查看轨道信息
2026-04-28T12:00:00+0800
2天前
查看轨道信息
半长轴 25508.264km 25508.344km
偏心率 0.0015957 0.0015905
轨道倾角 65.504° 65.504°
近地点辐角 176.164° 176.285°
升交点赤经 316.694° 316.670°
平近点角 189.781° 20.009°
近地点 19089.423km 19089.635km
远地点 19170.831km 19170.779km
周期 675.742分钟 675.745分钟
每日圈数 2.13099 2.13098
详细信息
平衡模式:
三轴稳定
覆盖范围:
全球
运营商:
列舍特涅夫卫星信息系统
运营商所在国:
俄罗斯
制造商(研发单位):
列舍特涅夫卫星信息系统
制造商所在国:
俄罗斯
使用方式:
暂无
卫星简介
格洛纳斯(GLONASS )是苏联/俄罗斯研制卫星导航系统。标准配置为24颗卫星,其中18颗卫星就能保证该系统为俄罗斯境内用户提供全部服务。该卫星已退役。
2D轨道图
3D轨道图
轨道高度分析图
轨道倾角分析图
轨道综合分析图
查看轨道综合分析图